Location: Cogollal
(10.0582°N, 67.8466°W)
Time: 05:29:31
(UTC+00:00)

Cosmos 2278 Rocket - Visible Passes

Search period start: 16 July 2024 00:00
Search period end: 26 July 2024 00:00
Orbit: 841 x 844 km, 71.0° (Epoch: 15 July)

Date Brightness Start Highest point End Pass type
(mag) Time Alt. Az. Time Alt. Az. Time Alt. Az.
19 Jul 4.6 01:50:02 14° N 01:50:02 14° N 01:50:49 10° N visible
20 Jul 4.0 01:33:54 24° N 01:33:54 24° N 01:36:06 10° N visible
21 Jul 2.8 01:17:00 51° NNW 01:17:00 51° NNW 01:21:23 10° N visible
22 Jul 2.3 00:56:16 15° SSW 01:01:01 71° WNW 01:06:39 10° N visible
23 Jul 2.3 00:40:38 10° SSW 00:46:16 75° WNW 00:51:55 10° N visible
24 Jul 2.2 00:25:52 10° SSW 00:31:32 80° WNW 00:37:11 10° NNE visible
25 Jul 2.2 00:11:07 10° SSW 00:16:47 85° WNW 00:22:26 10° NNE visible
